Rothschild, WI

10:38 PM CDT on September 26, 2016 (GMT -0500)
Wausau Downtown

Weather History for KAUW - January, 2014

Change the Weather History Date:

Sunday, January 26, 2014

  Actual Average Record
Temperature  
Mean Temperature 4 °F 15 °F  
Max Temperature 9 °F 24 °F 51 °F (2002)
Min Temperature -2 °F 6 °F -30 °F (1963)
Degree Days  
Heating Degree Days 61 50  
Month to date heating degree days 1507 1317  
Since 1 July heating degree days 4980 4603  
Cooling Degree Days 0 0  
Month to date cooling degree days 0 0  
Year to date cooling degree days 0 0  
Moisture  
Dew Point -3 °F    
Average Humidity 73    
Maximum Humidity 87    
Minimum Humidity 59    
Precipitation  
Precipitation 0.05 in 0.03 in 0.41 in (1996)
Month to date precipitation 1.17 0.86  
Year to date precipitation 1.17 0.86  
Snow  
Snow 1.30 in 0.40 in 11.50 in (1996)
Month to date snowfall 18.5 11.4  
Since 1 July snowfall 47.2 33.6  
Snow Depth 19.00 in    
Sea Level Pressure  
Sea Level Pressure 29.44 in    
Wind  
Wind Speed 12 mph (SSW)    
Max Wind Speed 26 mph    
Max Gust Speed 35 mph    
Visibility 4 miles    
Events Snow    
T = Trace of Precipitation, MM = Missing Value Source: NWS Daily Summary

Daily Weather History Graph

Daily Weather History Graph

Search for Another Location

Airport or City:

Trip Planner

Search our weather history database for the weather conditions in past years. The results will help you decide how hot, cold, wet, or windy it might be!

Date:

Astronomy

Jan. 26, 2014 Rise Set
Actual Time 7:24 AM CST 4:58 PM CST
Civil Twilight 6:52 AM CST 5:29 PM CST
Nautical Twilight 6:17 AM CST 6:05 PM CST
Astronomical Twilight 5:42 AM CST 6:40 PM CST
Moon 3:02 AM CST (1/26) 12:46 PM CST (1/26)
Length of Visible Light 10h 37m
Length of Day
9h 33m
Waning Crescent, 23% of the Moon is Illuminated
Jan 26
Waning Crescent
Jan 30
New
Feb 6
First Quarter
Feb 14
Full
Feb 22
Last Quarter

Hourly Weather History & Observations

Time (CST) Temp. Windchill Dew Point Humidity Pressure Visibility Wind Dir Wind Speed Gust Speed Precip Events Conditions
12:54 AM -0.9 °F -11.0 °F -9.9 °F 66% 29.65 in 10.0 mi South 4.6 mph - N/A   Overcast
1:54 AM -0.9 °F -8.9 °F -9.9 °F 66% 29.62 in 10.0 mi ESE 3.5 mph - N/A   Overcast
2:54 AM -0.9 °F -12.7 °F -8.0 °F 72% 29.62 in 2.5 mi South 5.8 mph - 0.00 in Snow Light Snow
3:03 AM -0.9 °F -11.0 °F -8.0 °F 72% 29.52 in 2.0 mi SSW 4.6 mph - 0.00 in Snow Light Snow
3:13 AM -0.9 °F -8.9 °F -7.1 °F 75% 29.51 in 1.2 mi South 3.5 mph - 0.00 in Snow Light Snow
3:45 AM -0.9 °F -11.0 °F -6.0 °F 79% 29.49 in 2.5 mi SE 4.6 mph - 0.00 in Snow Light Snow
3:54 AM -0.9 °F -11.0 °F -5.1 °F 83% 29.59 in 1.8 mi SE 4.6 mph - 0.00 in Snow Light Snow
4:24 AM -0.9 °F -12.7 °F -5.1 °F 83% 29.45 in 2.5 mi ESE 5.8 mph - 0.00 in Snow Light Snow
4:39 AM -0.9 °F -14.1 °F -5.1 °F 83% 29.44 in 1.8 mi ESE 6.9 mph - 0.00 in Snow Light Snow
4:54 AM -0.9 °F -12.7 °F -5.1 °F 83% 29.55 in 2.5 mi East 5.8 mph - 0.00 in Snow Light Snow
5:05 AM -0.9 °F -12.7 °F -5.1 °F 83% 29.44 in 1.8 mi East 5.8 mph - 0.00 in Snow Light Snow
5:10 AM -0.9 °F -12.7 °F -5.1 °F 83% 29.44 in 2.0 mi ESE 5.8 mph - 0.00 in Snow Light Snow
5:24 AM -0.9 °F -15.3 °F -5.1 °F 83% 29.42 in 2.5 mi SE 8.1 mph - 0.00 in Snow Light Snow
5:54 AM -0.9 °F -12.7 °F -5.1 °F 83% 29.51 in 2.5 mi ESE 5.8 mph - 0.00 in Snow Light Snow
6:08 AM -0.9 °F -14.1 °F -5.1 °F 83% 29.40 in 4.0 mi ESE 6.9 mph - 0.00 in Snow Light Snow
6:54 AM -0.0 °F -13.0 °F -5.1 °F 79% 29.48 in 9.0 mi ESE 6.9 mph - 0.00 in   Overcast
7:54 AM -0.0 °F -14.2 °F -5.1 °F 79% 29.44 in 10.0 mi SE 8.1 mph - N/A   Overcast
8:14 AM -0.0 °F -14.2 °F -5.1 °F 79% 29.32 in 6.0 mi SE 8.1 mph - 0.00 in Snow Light Snow
8:54 AM -0.0 °F -13.0 °F -4.0 °F 83% 29.44 in 2.5 mi SSE 6.9 mph - 0.00 in Snow Light Snow
9:08 AM 1.0 °F -8.7 °F -4.0 °F 79% 29.34 in 1.0 mi SSE 4.6 mph - 0.00 in Snow Light Snow
9:17 AM 1.0 °F -10.3 °F -4.0 °F 79% 29.33 in 0.8 mi SSE 5.8 mph - 0.00 in Snow Light Snow
9:31 AM 1.0 °F -8.7 °F -4.0 °F 79% 29.33 in 1.0 mi SSE 4.6 mph - 0.00 in Snow Light Snow
9:39 AM 1.0 °F -10.3 °F -4.0 °F 79% 29.33 in 0.8 mi SSE 5.8 mph - 0.00 in Snow Light Snow
9:54 AM 1.0 °F -11.7 °F -2.9 °F 83% 29.41 in 1.8 mi SE 6.9 mph - 0.00 in Snow Light Snow
10:01 AM 1.0 °F -12.9 °F -4.0 °F 79% 29.29 in 2.5 mi SE 8.1 mph - 0.00 in Snow Light Snow
10:08 AM 1.9 °F -12.9 °F -2.9 °F 80% 29.28 in 2.5 mi SSE 9.2 mph - 0.00 in Snow Light Snow
10:16 AM 1.9 °F -13.8 °F -2.9 °F 80% 29.28 in 5.0 mi SSE 10.4 mph - 0.00 in Snow Light Snow
10:30 AM 1.9 °F -10.6 °F -2.9 °F 80% 29.30 in 9.0 mi South 6.9 mph - 0.00 in   Overcast
10:54 AM 3.0 °F -6.4 °F -0.9 °F 84% 29.38 in 9.0 mi South 4.6 mph - 0.00 in   Overcast
11:54 AM 5.0 °F -8.1 °F -0.0 °F 80% 29.35 in 5.0 mi SW 8.1 mph - N/A   Haze
12:54 PM 6.1 °F -10.2 °F 1.9 °F 83% 29.34 in 5.0 mi West 12.7 mph - 0.00 in   Overcast
1:08 PM 7.0 °F -9.8 °F 1.9 °F 80% 29.24 in 6.0 mi West 13.8 mph - N/A   Haze
1:54 PM 8.1 °F -11.2 °F 1.9 °F 76% 29.35 in 3.0 mi West 19.6 mph 26.5 mph 0.00 in Snow Light Snow
2:46 PM 9.0 °F -10.5 °F 1.9 °F 73% 29.28 in 2.0 mi West 20.7 mph 29.9 mph 0.00 in   Overcast
2:54 PM 9.0 °F -10.0 °F 3.0 °F 77% 29.38 in 4.0 mi West 19.6 mph 26.5 mph 0.00 in   Haze
3:16 PM 9.0 °F -8.5 °F 3.0 °F 77% 29.31 in 2.0 mi West 16.1 mph 28.8 mph 0.00 in Snow Light Snow
3:26 PM 9.0 °F -11.0 °F 3.0 °F 77% 29.31 in 1.0 mi WNW 21.9 mph 31.1 mph 0.00 in Snow Light Snow
3:36 PM 9.0 °F -11.0 °F 1.9 °F 73% 29.32 in 0.8 mi WNW 21.9 mph 35.7 mph 0.00 in Snow Light Snow
3:44 PM 9.0 °F -11.0 °F 1.9 °F 73% 29.32 in 2.0 mi WNW 21.9 mph 27.6 mph 0.00 in   Overcast
3:52 PM 8.6 °F -10.0 °F 1.4 °F 73% 29.32 in 3.0 mi WNW 18.4 mph 26.5 mph 0.00 in   Overcast
3:54 PM 9.0 °F -9.0 °F 1.9 °F 73% 29.42 in 3.0 mi WNW 17.3 mph 26.5 mph 0.00 in   Overcast
4:05 PM 9.0 °F -12.6 °F 1.9 °F 73% 29.32 in 1.8 mi West 26.5 mph 33.4 mph 0.00 in   Overcast
4:29 PM 9.0 °F -10.0 °F -0.0 °F 67% 29.33 in 3.0 mi NW 19.6 mph 33.4 mph 0.00 in Snow Blowing Snow
4:54 PM 8.1 °F -10.2 °F -0.9 °F 67% 29.44 in 5.0 mi WNW 17.3 mph 26.5 mph 0.00 in   Haze
5:54 PM 7.0 °F -12.1 °F -0.9 °F 70% 29.49 in 8.0 mi NW 18.4 mph 24.2 mph N/A   Overcast
6:05 PM 7.0 °F -9.1 °F -2.0 °F 67% 29.40 in 10.0 mi NW 12.7 mph 23.0 mph N/A   Overcast
6:54 PM 5.0 °F -13.0 °F -5.1 °F 63% 29.55 in 10.0 mi NW 15.0 mph 24.2 mph N/A   Scattered Clouds
7:54 PM 3.9 °F -15.6 °F -5.1 °F 66% 29.60 in 9.0 mi NW 17.3 mph 27.6 mph N/A   Overcast
8:54 PM 3.0 °F -17.3 °F -4.0 °F 73% 29.65 in 5.0 mi NW 18.4 mph 31.1 mph 0.00 in   Overcast
9:27 PM 1.9 °F -19.2 °F -6.0 °F 69% 29.58 in 7.0 mi NW 19.6 mph 25.3 mph 0.00 in   Overcast
9:54 PM 1.9 °F -18.7 °F -6.0 °F 69% 29.71 in 6.0 mi NW 18.4 mph 29.9 mph 0.00 in Snow Blowing Snow
10:17 PM 1.0 °F -18.0 °F -9.0 °F 63% 29.64 in 8.0 mi NW 15.0 mph 28.8 mph N/A   Scattered Clouds
10:54 PM -0.0 °F -18.7 °F -11.0 °F 60% 29.78 in 10.0 mi NW 13.8 mph 26.5 mph N/A   Clear
11:54 PM -0.9 °F -23.0 °F -13.0 °F 57% 29.84 in 10.0 mi NW 19.6 mph 26.5 mph N/A   Clear